DLH2PM EDDF-EDDP

Flight info

Callsign DLH2PM
Flight time 0h 35m
Altitude 23000
Route SULUS4D/07C SULUS Z12 LASGA/N0400F220 T953 VOCIM/N0395F210 T954 GOXLI GOXLI1R
Aircraft A20N/M-SDE2E3FGHIRWXY/LB1

Departure

Time 2026-05-07 19:05
Airport Frankfurt Main Airport (EDDF)

Arrival

Time 2026-05-07 19:41
Airport Leipzig/Halle Airport (EDDP)
Time Latitude Longitude Altitude Speed Heading
2026-05-07 18:27 50.04607 8.56765 371 ft 0 kts 294°
2026-05-07 18:52 50.04606 8.56767 371 ft 1 kts 295°
2026-05-07 18:53 50.04601 8.56788 371 ft 2 kts 294°
2026-05-07 18:53 50.04594 8.56809 371 ft 2 kts 295°
2026-05-07 18:53 50.04588 8.56829 371 ft 1 kts 294°
2026-05-07 18:53 50.04584 8.56845 371 ft 2 kts 278°
2026-05-07 18:54 50.04585 8.56868 371 ft 2 kts 251°
2026-05-07 18:54 50.04593 8.56888 371 ft 2 kts 224°
2026-05-07 18:54 50.04601 8.56897 371 ft 0 kts 207°
2026-05-07 18:54 50.04607 8.56901 371 ft 0 kts 204°
2026-05-07 18:56 50.04606 8.56900 371 ft 0 kts 204°
2026-05-07 18:56 50.04597 8.56894 371 ft 1 kts 204°
2026-05-07 18:57 50.04578 8.56881 371 ft 7 kts 204°
2026-05-07 18:57 50.04499 8.56849 371 ft 14 kts 181°
2026-05-07 18:57 50.04382 8.56839 371 ft 18 kts 190°
2026-05-07 18:57 50.04268 8.56800 371 ft 11 kts 203°
2026-05-07 18:58 50.04227 8.56694 371 ft 12 kts 250°
2026-05-07 18:58 50.04196 8.56566 371 ft 12 kts 250°
2026-05-07 18:58 50.04165 8.56434 371 ft 13 kts 250°
2026-05-07 18:58 50.04132 8.56296 371 ft 13 kts 250°
2026-05-07 18:59 50.04098 8.56153 371 ft 14 kts 250°
2026-05-07 18:59 50.04063 8.56011 371 ft 13 kts 250°
2026-05-07 18:59 50.04030 8.55871 371 ft 12 kts 250°
2026-05-07 18:59 50.04001 8.55752 371 ft 11 kts 250°
2026-05-07 19:00 50.03972 8.55631 371 ft 12 kts 250°
2026-05-07 19:00 50.03941 8.55503 371 ft 12 kts 250°
2026-05-07 19:00 50.03910 8.55371 371 ft 13 kts 250°
2026-05-07 19:00 50.03877 8.55232 371 ft 13 kts 250°
2026-05-07 19:01 50.03843 8.55090 371 ft 14 kts 250°
2026-05-07 19:01 50.03809 8.54945 371 ft 14 kts 250°
2026-05-07 19:01 50.03772 8.54795 371 ft 14 kts 249°
2026-05-07 19:01 50.03728 8.54708 371 ft 7 kts 201°
2026-05-07 19:02 50.03685 8.54711 371 ft 3 kts 161°
2026-05-07 19:02 50.03670 8.54719 371 ft 1 kts 160°
2026-05-07 19:03 50.03669 8.54719 371 ft 0 kts 160°
2026-05-07 19:03 50.03647 8.54731 371 ft 7 kts 160°
2026-05-07 19:04 50.03596 8.54761 370 ft 8 kts 152°
2026-05-07 19:04 50.03586 8.54817 371 ft 0 kts 71°
2026-05-07 19:05 50.03647 8.55073 371 ft 62 kts 70°
2026-05-07 19:05 50.03884 8.56059 371 ft 130 kts 70°
2026-05-07 19:05 50.04258 8.57619 622 ft 162 kts 69°
2026-05-07 19:05 50.04639 8.59207 1354 ft 158 kts 69°
2026-05-07 19:06 50.05022 8.60787 2049 ft 161 kts 69°
2026-05-07 19:06 50.05858 8.64452 2972 ft 198 kts 71°
2026-05-07 19:06 50.06303 8.66592 3388 ft 222 kts 71°
2026-05-07 19:07 50.06799 8.68934 3851 ft 230 kts 71°
2026-05-07 19:07 50.07119 8.71389 4136 ft 236 kts 88°
2026-05-07 19:07 50.06983 8.73987 4746 ft 252 kts 98°
2026-05-07 19:07 50.06665 8.76774 5366 ft 268 kts 99°
2026-05-07 19:08 50.06316 8.79619 6212 ft 273 kts 99°
2026-05-07 19:08 50.05983 8.82524 7112 ft 276 kts 97°
2026-05-07 19:08 50.05803 8.85487 7964 ft 280 kts 91°
2026-05-07 19:08 50.05800 8.88517 8798 ft 283 kts 88°
2026-05-07 19:09 50.05853 8.91591 9602 ft 288 kts 87°
2026-05-07 19:09 50.05914 8.94709 10358 ft 293 kts 87°
2026-05-07 19:09 50.05976 8.97931 10860 ft 308 kts 88°
2026-05-07 19:09 50.06036 9.01323 11229 ft 326 kts 88°
2026-05-07 19:10 50.06095 9.04955 11575 ft 344 kts 88°
2026-05-07 19:10 50.06155 9.08770 11889 ft 362 kts 88°
2026-05-07 19:10 50.06214 9.12675 12181 ft 379 kts 88°
2026-05-07 19:10 50.06276 9.16820 12569 ft 391 kts 88°
2026-05-07 19:11 50.06337 9.21101 12979 ft 394 kts 88°
2026-05-07 19:11 50.06396 9.25383 13067 ft 395 kts 88°
2026-05-07 19:11 50.06453 9.29626 13069 ft 394 kts 88°
2026-05-07 19:11 50.06508 9.33899 13070 ft 394 kts 88°
2026-05-07 19:12 50.06562 9.38137 13071 ft 394 kts 88°
2026-05-07 19:12 50.06615 9.42381 13071 ft 394 kts 88°
2026-05-07 19:12 50.06666 9.46640 13071 ft 395 kts 88°
2026-05-07 19:12 50.06716 9.50887 13071 ft 395 kts 88°
2026-05-07 19:13 50.06765 9.55193 13071 ft 395 kts 88°
2026-05-07 19:13 50.06813 9.59457 13071 ft 395 kts 88°
2026-05-07 19:13 50.06857 9.63687 13071 ft 395 kts 88°
2026-05-07 19:13 50.06900 9.67979 13071 ft 395 kts 89°
2026-05-07 19:14 50.06941 9.72211 13138 ft 400 kts 88°
2026-05-07 19:14 50.06982 9.76514 13733 ft 404 kts 89°
2026-05-07 19:14 50.07021 9.80864 14523 ft 404 kts 89°
2026-05-07 19:14 50.07060 9.85246 15180 ft 407 kts 89°
2026-05-07 19:15 50.07097 9.89678 15784 ft 411 kts 89°
2026-05-07 19:15 50.07132 9.94144 16382 ft 414 kts 89°
2026-05-07 19:15 50.07166 9.98625 16874 ft 417 kts 89°
2026-05-07 19:15 50.07198 10.03089 17063 ft 419 kts 89°
2026-05-07 19:16 50.07228 10.07653 17064 ft 418 kts 89°
2026-05-07 19:16 50.07256 10.12122 17065 ft 417 kts 89°
2026-05-07 19:16 50.07282 10.16642 17064 ft 417 kts 89°
2026-05-07 19:16 50.07307 10.21194 17067 ft 418 kts 89°
2026-05-07 19:17 50.07331 10.25690 17351 ft 425 kts 89°
2026-05-07 19:17 50.07356 10.30324 18039 ft 424 kts 89°
2026-05-07 19:17 50.07380 10.34911 18621 ft 427 kts 89°
2026-05-07 19:17 50.07403 10.39537 18989 ft 429 kts 89°
2026-05-07 19:18 50.07423 10.44149 19058 ft 429 kts 89°
2026-05-07 19:18 50.07441 10.48757 19060 ft 429 kts 89°
2026-05-07 19:18 50.07458 10.53444 19062 ft 428 kts 89°
2026-05-07 19:18 50.07472 10.58036 19062 ft 428 kts 89°
2026-05-07 19:19 50.07546 10.62660 19054 ft 427 kts 82°
2026-05-07 19:19 50.08370 10.66973 19044 ft 425 kts 61°
2026-05-07 19:19 50.10189 10.70568 19056 ft 421 kts 39°
2026-05-07 19:19 50.12592 10.73082 19071 ft 419 kts 28°
2026-05-07 19:20 50.15133 10.75301 19066 ft 419 kts 27°
2026-05-07 19:20 50.17645 10.77497 19063 ft 419 kts 28°
2026-05-07 19:20 50.20175 10.79763 19062 ft 419 kts 28°
2026-05-07 19:20 50.22685 10.82057 19063 ft 425 kts 29°
2026-05-07 19:21 50.25232 10.84419 19062 ft 427 kts 29°
2026-05-07 19:21 50.27791 10.86815 19061 ft 427 kts 30°
2026-05-07 19:21 50.30341 10.89215 19061 ft 427 kts 30°
2026-05-07 19:21 50.32876 10.91609 19061 ft 427 kts 30°
2026-05-07 19:22 50.35401 10.93999 19062 ft 426 kts 30°
2026-05-07 19:22 50.37911 10.96379 19063 ft 426 kts 30°
2026-05-07 19:22 50.40429 10.98774 19064 ft 425 kts 30°
2026-05-07 19:22 50.42958 11.01184 19066 ft 425 kts 30°
2026-05-07 19:23 50.45484 11.03594 19067 ft 425 kts 30°
2026-05-07 19:23 50.48009 11.06002 19069 ft 424 kts 30°
2026-05-07 19:23 50.50494 11.08375 19070 ft 424 kts 30°
2026-05-07 19:23 50.53009 11.10778 19070 ft 424 kts 30°
2026-05-07 19:24 50.55530 11.13192 19070 ft 424 kts 30°
2026-05-07 19:24 50.58055 11.15611 19070 ft 424 kts 30°
2026-05-07 19:24 50.60545 11.18000 19070 ft 424 kts 30°
2026-05-07 19:24 50.63094 11.20350 19070 ft 423 kts 27°
2026-05-07 19:25 50.65696 11.22442 19070 ft 422 kts 24°
2026-05-07 19:25 50.68353 11.24407 19071 ft 422 kts 23°
2026-05-07 19:25 50.70990 11.26319 19070 ft 422 kts 22°
2026-05-07 19:25 50.73661 11.28252 18936 ft 416 kts 22°
2026-05-07 19:26 50.76261 11.30142 18311 ft 413 kts 22°
2026-05-07 19:26 50.78826 11.32009 17584 ft 412 kts 22°
2026-05-07 19:26 50.81410 11.33895 16944 ft 408 kts 23°
2026-05-07 19:26 50.83967 11.35768 16314 ft 404 kts 23°
2026-05-07 19:27 50.86495 11.37623 15683 ft 401 kts 23°
2026-05-07 19:27 50.89004 11.39466 15053 ft 397 kts 23°
2026-05-07 19:27 50.91480 11.41287 14426 ft 394 kts 23°
2026-05-07 19:27 50.93956 11.43110 13799 ft 391 kts 23°
2026-05-07 19:28 50.96401 11.44912 13181 ft 387 kts 23°
2026-05-07 19:28 50.98737 11.46944 12538 ft 386 kts 35°
2026-05-07 19:28 51.00619 11.49921 11926 ft 385 kts 50°
2026-05-07 19:28 51.02215 11.53288 11368 ft 381 kts 52°
2026-05-07 19:29 51.03735 11.56665 10789 ft 377 kts 53°
2026-05-07 19:29 51.05249 11.60049 10398 ft 367 kts 53°
2026-05-07 19:29 51.06694 11.63280 10178 ft 354 kts 53°
2026-05-07 19:29 51.08052 11.66321 10099 ft 337 kts 54°
2026-05-07 19:30 51.09372 11.69284 10095 ft 319 kts 54°
2026-05-07 19:30 51.10619 11.72090 10092 ft 302 kts 54°
2026-05-07 19:30 51.11784 11.74717 10090 ft 286 kts 54°
2026-05-07 19:30 51.12923 11.77289 10095 ft 283 kts 54°
2026-05-07 19:31 51.14046 11.79827 10097 ft 283 kts 54°
2026-05-07 19:31 51.15167 11.82361 10095 ft 278 kts 54°
2026-05-07 19:31 51.16275 11.84872 9731 ft 276 kts 54°
2026-05-07 19:31 51.17363 11.87327 9188 ft 275 kts 54°
2026-05-07 19:32 51.18469 11.89812 8634 ft 273 kts 54°
2026-05-07 19:32 51.19568 11.92271 8085 ft 272 kts 54°
2026-05-07 19:32 51.20656 11.94692 7537 ft 270 kts 51°
2026-05-07 19:32 51.21957 11.96810 6978 ft 268 kts 35°
2026-05-07 19:33 51.23645 11.97918 6436 ft 265 kts
2026-05-07 19:33 51.25435 11.97609 5940 ft 264 kts 340°
2026-05-07 19:33 51.26937 11.95946 5437 ft 264 kts 313°
2026-05-07 19:33 51.28022 11.93621 4944 ft 259 kts 305°
2026-05-07 19:34 51.28999 11.91276 4446 ft 255 kts 310°
2026-05-07 19:34 51.30354 11.89603 4047 ft 242 kts 341°
2026-05-07 19:34 51.31930 11.88970 4002 ft 228 kts 351°
2026-05-07 19:34 51.33444 11.88607 3984 ft 214 kts 353°
2026-05-07 19:35 51.34877 11.88304 3982 ft 204 kts 354°
2026-05-07 19:35 51.36269 11.88016 3992 ft 203 kts 354°
2026-05-07 19:35 51.37680 11.87909 3980 ft 202 kts 13°
2026-05-07 19:35 51.38901 11.88946 3988 ft 200 kts 44°
2026-05-07 19:36 51.39801 11.90579 3806 ft 198 kts 52°
2026-05-07 19:36 51.40638 11.92373 3467 ft 201 kts 53°
2026-05-07 19:36 51.41406 11.94240 3173 ft 202 kts 65°
2026-05-07 19:36 51.41810 11.96330 3024 ft 193 kts 78°
2026-05-07 19:37 51.42000 11.98354 3044 ft 174 kts 82°
2026-05-07 19:37 51.42132 12.00277 3007 ft 172 kts 83°
2026-05-07 19:37 51.42234 12.02184 2836 ft 172 kts 84°
2026-05-07 19:37 51.42322 12.04084 2611 ft 171 kts 84°
2026-05-07 19:38 51.42406 12.05980 2389 ft 170 kts 84°
2026-05-07 19:38 51.42489 12.07838 2192 ft 160 kts 84°
2026-05-07 19:38 51.42563 12.09517 1963 ft 146 kts 84°
2026-05-07 19:38 51.42636 12.11096 1724 ft 138 kts 85°
2026-05-07 19:39 51.42707 12.12622 1574 ft 137 kts 84°
2026-05-07 19:39 51.42780 12.14149 1423 ft 137 kts 84°
2026-05-07 19:39 51.42854 12.15655 1258 ft 137 kts 84°
2026-05-07 19:39 51.42901 12.16680 1133 ft 137 kts 85°
2026-05-07 19:40 51.42987 12.18698 850 ft 136 kts 84°
2026-05-07 19:40 51.43059 12.20213 680 ft 136 kts 85°
2026-05-07 19:40 51.43129 12.21706 503 ft 134 kts 85°
2026-05-07 19:40 51.43191 12.23039 479 ft 98 kts 85°
2026-05-07 19:41 51.43233 12.23894 479 ft 59 kts 85°
2026-05-07 19:41 51.43248 12.24374 479 ft 27 kts 95°
2026-05-07 19:41 51.43206 12.24629 479 ft 23 kts 114°
2026-05-07 19:41 51.43145 12.24832 479 ft 18 kts 115°
2026-05-07 19:42 51.43106 12.24964 479 ft 10 kts 116°
2026-05-07 19:42 51.43074 12.25070 479 ft 10 kts 116°
2026-05-07 19:42 51.43010 12.25118 479 ft 11 kts 189°
2026-05-07 19:42 51.42929 12.25090 479 ft 12 kts 193°
2026-05-07 19:43 51.42840 12.25056 483 ft 11 kts 193°
2026-05-07 19:43 51.42757 12.25023 488 ft 15 kts 193°
2026-05-07 19:43 51.42618 12.24969 492 ft 24 kts 193°
2026-05-07 19:43 51.42427 12.24897 497 ft 32 kts 193°
2026-05-07 19:44 51.42222 12.24821 503 ft 17 kts 192°
2026-05-07 19:44 51.42111 12.24778 505 ft 16 kts 193°
2026-05-07 19:44 51.42000 12.24735 505 ft 16 kts 193°
2026-05-07 19:44 51.41886 12.24690 498 ft 19 kts 193°
2026-05-07 19:45 51.41754 12.24639 480 ft 19 kts 194°
2026-05-07 19:45 51.41665 12.24585 478 ft 9 kts 236°
2026-05-07 19:45 51.41654 12.24477 479 ft 10 kts 265°
2026-05-07 19:45 51.41648 12.24346 479 ft 12 kts 265°
2026-05-07 19:46 51.41640 12.24191 479 ft 15 kts 265°
2026-05-07 19:46 51.41631 12.24014 479 ft 16 kts 265°
2026-05-07 19:46 51.41622 12.23819 479 ft 18 kts 265°
2026-05-07 19:46 51.41612 12.23607 479 ft 19 kts 265°
2026-05-07 19:47 51.41602 12.23379 479 ft 19 kts 265°
2026-05-07 19:47 51.41608 12.23179 479 ft 18 kts 286°
2026-05-07 19:47 51.41645 12.22971 479 ft 22 kts 285°
2026-05-07 19:47 51.41688 12.22718 479 ft 23 kts 284°
2026-05-07 19:48 51.41730 12.22467 479 ft 22 kts 285°
2026-05-07 19:48 51.41758 12.22333 479 ft 7 kts 324°
2026-05-07 19:48 51.41780 12.22342 479 ft 3 kts 20°
2026-05-07 19:48 51.41809 12.22359 479 ft 5 kts 18°
2026-05-07 19:49 51.41842 12.22373 479 ft 1 kts 14°
2026-05-07 19:49 51.41843 12.22373 479 ft 0 kts 14°